Location: Detroit
(42.3310°N, 83.0460°W)
Time: 19:20:35
(UTC-04:00)

A-11 Canister half - Pass Details

Date: 12 February 2023
Orbit: 1526 x 1682 km, 47.3° (Epoch: 29 March)

Event Time Altitude Azimuth Distance (km) Brightness Sun altitude
Rises 10:48:19 0° 296° (WNW) 4,694 11.1 27.8°
Reaches altitude 10° 10:51:33 10° 289° (WNW) 3,720 10.7 28.1°
Maximum altitude 11:00:05 41° 224° (SW) 2,145 10.3 28.9°
Drops below altitude 10° 11:08:50 10° 158° (SSE) 3,808 12.7 29.7°
Sets 11:12:12 0° 152° (SSE) 4,813 12.8 30.0°
